This is the latest recevied weather packets stored in our database for station/object WB0OCV. If no packets are shown the sender has not sent any weather packets the latest 10 day(s).
| Time | Temp. | Humidity | Pressure | Rain* | Wind** | Luminosity | Snow |
|---|---|---|---|---|---|---|---|
| 1778182911 | 17.22° C | 63% | 1007.9 hPa | 0 mm | - | 595 W/m² | - |
| 1778182608 | 17.22° C | 65% | 1007.9 hPa | 0 mm | - | 604 W/m² | - |
| 1778182305 | 16.67° C | 65% | 1007.8 hPa | 0 mm | - | 616 W/m² | - |
| 1778182000 | 17.22° C | 66% | 1007.7 hPa | 0 mm | - | 627 W/m² | - |
| 1778181698 | 17.22° C | 66% | 1007.8 hPa | 0 mm | - | 638 W/m² | - |
| 1778181393 | 18.33° C | 63% | 1008 hPa | 0 mm | - | 652 W/m² | - |
| 1778181090 | 17.78° C | 65% | 1008.1 hPa | 0 mm | - | 669 W/m² | - |
| 1778180788 | 17.22° C | 65% | 1008.1 hPa | 0 mm | - | 688 W/m² | - |
| 1778180487 | 17.78° C | 64% | 1008 hPa | 0 mm | - | 178 W/m² | - |
| 1778180185 | 17.78° C | 66% | 1008.2 hPa | 0 mm | - | 699 W/m² | - |
| 1778179880 | 18.33° C | 62% | 1008.3 hPa | 0 mm | - | 703 W/m² | - |
| 1778179579 | 17.78° C | 64% | 1008.4 hPa | 0 mm | - | 716 W/m² | - |
| 1778179276 | 17.78° C | 64% | 1008.5 hPa | 0 mm | - | 724 W/m² | - |
| 1778178972 | 17.78° C | 67% | 1008.8 hPa | 0 mm | - | 730 W/m² | - |
| 1778178670 | 17.22° C | 65% | 1008.6 hPa | 0 mm | - | 736 W/m² | - |
| 1778178366 | 16.67° C | 68% | 1008.9 hPa | 0 mm | - | 813 W/m² | - |
| 1778178062 | 16.11° C | 71% | 1008.8 hPa | 0 mm | - | 367 W/m² | - |
| 1778177759 | 16.11° C | 68% | 1008.7 hPa | 0 mm | - | 273 W/m² | - |
| 1778177455 | 16.67° C | 71% | 1008.7 hPa | 0 mm | - | 892 W/m² | - |
| 1778177151 | 16.67° C | 70% | 1008.9 hPa | 0 mm | - | 243 W/m² | - |
| 1778176849 | 16.67° C | 68% | 1008.8 hPa | 0 mm | - | 205 W/m² | - |
| 1778176544 | 17.22° C | 69% | 1009 hPa | 0 mm | - | 834 W/m² | - |
| 1778176243 | 17.78° C | 68% | 1008.9 hPa | 0 mm | - | 931 W/m² | - |
| 1778175939 | 17.78° C | 69% | 1009 hPa | 0 mm | - | 918 W/m² | - |
| 1778175637 | 17.22° C | 69% | 1008.9 hPa | 0 mm | - | 835 W/m² | - |
* Rain latest hour (hover to see other rain measurements)
** Current wind speed in m/s (hover to see current wind gust speed)